{"data":{"norad_id":58609,"intl_designator":"2023-200W","name":"STARLINK-31085","alt_names":[],"object_type":"PAYLOAD","status":"ACTIVE","operator":null,"country":"US","launch_date":"2023-12-19","launch_site_code":"AFETR","launch_vehicle":null,"mission":null,"orbit_class":"UNKNOWN","rcs_meters":null,"size_class":null,"mass_kg":null,"dimensions":null,"purposes":["comms"],"wikipedia_slug":null,"has_3d_model":false,"image_url":null,"decayed_at":null,"tle_current":{"epoch":"2026-05-25T03:41:03.126624Z","epoch_age_seconds":55778,"freshness":"FRESH","line1":"1 58609U 23200W   26145.15350841  .00000527  00000+0  28681-4 0  9992","line2":"2 58609  43.0021  97.1325 0000963 258.3639 101.7104 15.27574848135308","mean_motion":15.27574848,"eccentricity":9.63e-5,"inclination_deg":43.0021,"raan_deg":97.1325,"arg_perigee_deg":258.3639,"mean_anomaly_deg":101.7104,"bstar":2.8681e-5,"rev_number":13530,"period_min":94.267066643925,"perigee_km":482.40378931777,"apogee_km":483.7252567311,"semimajor_km":6861.2015230244,"source":"CELESTRAK","updated_at":"2026-05-25T13:38:18.704470Z"}}}